Edwards, CA

1:54 PM PST on February 23, 2017 (GMT -0800)
Edwards Air Force Base

Weather History for KEDW - March, 2013

Change the Weather History Date:

Sunday, March 10, 2013

  Actual Average Record
Temperature  
Mean Temperature 47 °F -  
Max Temperature 66 °F 66 °F 82 °F (1997)
Min Temperature 28 °F 36 °F 27 °F (2009)
Degree Days  
Heating Degree Days 18    
Moisture  
Dew Point 24 °F    
Average Humidity 55    
Maximum Humidity 99    
Minimum Humidity 12    
Precipitation  
Precipitation 0.00 in - - ()
Sea Level Pressure  
Sea Level Pressure 30.27 in    
Wind  
Wind Speed 4 mph (SW)    
Max Wind Speed 8 mph    
Max Gust Speed -    
Visibility 10 miles    
Events      
Averages and records for this station are not official NWS values.
T = Trace of Precipitation, MM = Missing Value Source: NWS Daily Summary

Daily Weather History Graph

Daily Weather History Graph

Search for Another Location

Airport or City:

Trip Planner

Search our weather history database for the weather conditions in past years. The results will help you decide how hot, cold, wet, or windy it might be!

Date:

Astronomy

Mar. 10, 2013 Rise Set
Actual Time 7:08 AM PDT 6:55 PM PDT
Civil Twilight 6:43 AM PDT 7:20 PM PDT
Nautical Twilight 6:14 AM PDT 7:49 PM PDT
Astronomical Twilight 5:44 AM PDT 8:19 PM PDT
Moon 6:09 AM PDT (3/10) 6:08 PM PDT (3/10)
Length of Visible Light 12h 37m
Length of Day
11h 46m
Waning Crescent, 1% of the Moon is Illuminated
Mar 10
Waning Crescent
Mar 11
New
Mar 19
First Quarter
Mar 27
Full
Apr 2
Last Quarter

Hourly Weather History & Observations

Time (PDT) Temp. Windchill Dew Point Humidity Pressure Visibility Wind Dir Wind Speed Gust Speed Precip Events Conditions
12:58 AM 34.9 °F 29.9 °F 32.2 °F 90% 30.26 in 10.0 mi WSW 5.8 mph - N/A   Clear
1:58 AM 32.4 °F 27.9 °F 31.3 °F 96% 30.27 in 10.0 mi SSW 4.6 mph - N/A   Clear
3:58 AM 30.4 °F 24.5 °F 30.0 °F 99% 30.27 in 10.0 mi South 5.8 mph - N/A   Clear
4:58 AM 30.0 °F 26.5 °F 29.7 °F 99% 30.29 in 10.0 mi South 3.5 mph - N/A   Clear
5:58 AM 28.9 °F - 28.6 °F 99% 30.31 in 10.0 mi WSW 2.3 mph - N/A   Clear
6:58 AM 28.9 °F 25.2 °F 28.8 °F 99% 30.32 in 10.0 mi SW 3.5 mph - N/A   Clear
7:58 AM 29.1 °F 25.4 °F 28.9 °F 99% 30.36 in 10.0 mi NNW 3.5 mph - N/A   Clear
8:58 AM 34.7 °F 30.6 °F 29.5 °F 81% 30.37 in 90.0 mi SE 4.6 mph - N/A   Clear
9:58 AM 40.1 °F - 30.6 °F 69% 30.37 in 90.0 mi SSW 2.3 mph - N/A   Clear
10:58 AM 48.2 °F - 28.2 °F 46% 30.35 in 90.0 mi West 2.3 mph - N/A   Clear
11:58 AM 55.0 °F - 23.0 °F 29% 30.33 in 90.0 mi Variable 2.3 mph - N/A   Clear
12:58 PM 59.9 °F - 17.8 °F 19% 30.30 in 90.0 mi Variable 3.5 mph - N/A   Clear
1:58 PM 62.1 °F - 18.0 °F 18% 30.27 in 90.0 mi NW 3.5 mph - N/A   Clear
2:58 PM 63.5 °F - 16.2 °F 16% 30.24 in 90.0 mi Variable 2.3 mph - N/A   Clear
3:58 PM 65.1 °F - 14.7 °F 14% 30.22 in 90.0 mi Calm Calm - N/A   Partly Cloudy
4:58 PM 65.3 °F - 13.6 °F 14% 30.20 in 10.0 mi Variable 2.3 mph - N/A   Clear
5:58 PM 66.2 °F - 12.4 °F 12% 30.20 in 10.0 mi NNE 2.3 mph - N/A   Clear
6:58 PM 63.5 °F - 12.7 °F 14% 30.21 in 10.0 mi SSW 2.3 mph - N/A   Clear
7:58 PM 54.5 °F - 21.0 °F 27% 30.24 in 10.0 mi West 4.6 mph - N/A   Clear
8:58 PM 50.9 °F - 19.4 °F 29% 30.24 in 10.0 mi Variable 4.6 mph - N/A   Clear
9:58 PM 43.7 °F 41.1 °F 21.9 °F 42% 30.25 in 10.0 mi SSW 4.6 mph - N/A   Clear
10:58 PM 45.1 °F 40.8 °F 27.9 °F 51% 30.25 in 10.0 mi SSW 8.1 mph - N/A   Clear
11:58 PM 41.5 °F 37.8 °F 31.5 °F 67% 30.25 in 10.0 mi SW 5.8 mph - N/A   Clear
12:58 AM 37.8 °F 34.2 °F 31.6 °F 79% 30.22 in 10.0 mi SSW 4.6 mph - N/A   Clear